Time,TemperatureF,DewpointF,PressureIn,WindDirection,WindDirectionDegrees,WindSpeedMPH,WindSpeedGustMPH,Humidity,HourlyPrecipIn,Conditions,Clouds,dailyrainin,SoftwareType,DateUTC
2013-04-13 01:24:00,27.0,26.0,29.89,SW,234,8.0,-999.0,97,-99.99,,,-99.99,,2013-04-13 07:24:00,
2013-04-13 01:34:00,27.0,26.0,29.89,SW,231,7.0,-999.0,98,-99.99,,,-99.99,,2013-04-13 07:34:00,
2013-04-13 01:44:00,27.0,26.0,29.89,WSW,241,9.0,-999.0,97,-99.99,,,-99.99,,2013-04-13 07:44:00,
2013-04-13 01:54:00,26.0,25.0,29.91,SW,230,10.0,-999.0,96,-99.99,,,-99.99,,2013-04-13 07:54:00,
2013-04-13 02:06:00,26.0,24.0,29.90,SW,234,11.0,-999.0,95,-99.99,,,-99.99,,2013-04-13 08:06:00,
2013-04-13 02:15:00,26.0,25.0,29.91,SW,232,9.0,-999.0,95,-99.99,,,-99.99,,2013-04-13 08:15:00,
2013-04-13 02:25:00,26.0,25.0,29.88,SW,227,9.0,-999.0,94,-99.99,,,-99.99,,2013-04-13 08:25:00,
2013-04-13 02:45:00,26.0,25.0,29.88,SW,223,11.0,-999.0,93,-99.99,,,-99.99,,2013-04-13 08:45:00,
2013-04-13 02:53:00,26.0,24.0,29.89,SW,227,10.0,-999.0,92,-99.99,,,-99.99,,2013-04-13 08:53:00,
2013-04-13 03:05:00,26.0,24.0,29.86,SW,225,7.0,-999.0,92,-99.99,,,-99.99,,2013-04-13 09:05:00,
2013-04-13 03:14:00,26.0,24.0,29.87,SW,229,9.0,-999.0,91,-99.99,,,-99.99,,2013-04-13 09:14:00,
2013-04-13 03:24:00,26.0,23.0,29.87,WSW,239,10.0,-999.0,91,-99.99,,,-99.99,,2013-04-13 09:24:00,
2013-04-13 03:36:00,25.0,23.0,29.85,WSW,252,12.0,-999.0,92,-99.99,,,-99.99,,2013-04-13 09:36:00,
2013-04-13 03:49:00,24.0,23.0,29.86,WSW,237,10.0,-999.0,93,-99.99,,,-99.99,,2013-04-13 09:49:00,
2013-04-13 04:05:00,24.0,22.0,29.85,SW,226,8.0,-999.0,94,-99.99,,,-99.99,,2013-04-13 10:05:00,
2013-04-13 04:15:00,24.0,23.0,29.83,SW,228,11.0,-999.0,95,-99.99,,,-99.99,,2013-04-13 10:15:00,
2013-04-13 04:24:00,24.0,23.0,29.84,SW,222,9.0,-999.0,96,-99.99,,,-99.99,,2013-04-13 10:24:00,
2013-04-13 04:36:00,24.0,23.0,29.85,SSW,205,6.0,-999.0,96,-99.99,,,-99.99,,2013-04-13 10:36:00,
2013-04-13 04:46:00,25.0,24.0,29.84,South,178,7.0,-999.0,96,-99.99,,,-99.99,,2013-04-13 10:46:00,
2013-04-13 04:53:00,26.0,25.0,29.80,SSE,165,10.0,-999.0,96,-99.99,,,-99.99,,2013-04-13 10:53:00,
2013-04-13 05:06:00,26.0,24.0,29.82,South,173,10.0,-999.0,93,-99.99,,,-99.99,,2013-04-13 11:06:00,
2013-04-13 05:13:00,26.0,23.0,29.81,SSE,167,10.0,-999.0,91,-99.99,,,-99.99,,2013-04-13 11:13:00,
2013-04-13 05:24:00,24.0,22.0,29.81,South,171,13.0,-999.0,92,-99.99,,,-99.99,,2013-04-13 11:24:00,
2013-04-13 05:34:00,24.0,22.0,29.80,SSE,155,9.0,-999.0,94,-99.99,,,-99.99,,2013-04-13 11:34:00,
2013-04-13 05:44:00,24.0,23.0,29.82,SSE,161,13.0,-999.0,95,-99.99,,,-99.99,,2013-04-13 11:44:00,
2013-04-13 05:53:00,24.0,23.0,29.79,SSE,153,11.0,-999.0,94,-99.99,,,-99.99,,2013-04-13 11:53:00,
2013-04-13 06:08:00,23.0,22.0,29.80,SSE,159,13.0,-999.0,95,-99.99,,,-99.99,,2013-04-13 12:08:00,
2013-04-13 06:15:00,24.0,22.0,29.79,SSE,153,10.0,-999.0,95,-99.99,,,-99.99,,2013-04-13 12:15:00,
2013-04-13 06:24:00,23.0,22.0,29.77,SSE,162,13.0,-999.0,95,-99.99,,,-99.99,,2013-04-13 12:24:00,
2013-04-13 06:35:00,23.0,21.0,29.77,SSE,149,9.0,-999.0,95,-99.99,,,-99.99,,2013-04-13 12:35:00,
2013-04-13 06:47:00,23.0,22.0,29.77,SSE,149,9.0,-999.0,96,-99.99,,,-99.99,,2013-04-13 12:47:00,
2013-04-13 06:54:00,23.0,22.0,29.77,SE,139,13.0,-999.0,94,-99.99,,,-99.99,,2013-04-13 12:54:00,
2013-04-13 07:05:00,23.0,22.0,29.77,SE,139,13.0,-999.0,94,-99.99,,,-99.99,,2013-04-13 13:05:00,
2013-04-13 07:15:00,24.0,22.0,29.76,SE,130,13.0,-999.0,92,-99.99,,,-99.99,,2013-04-13 13:15:00,
2013-04-13 07:27:00,25.0,23.0,29.75,SE,136,14.0,-999.0,92,-99.99,,,-99.99,,2013-04-13 13:27:00,
2013-04-13 07:34:00,25.0,22.0,29.72,SE,129,15.0,-999.0,89,-99.99,,,-99.99,,2013-04-13 13:34:00,
2013-04-13 07:47:00,25.0,23.0,29.74,ESE,122,15.0,-999.0,92,-99.99,,,-99.99,,2013-04-13 13:47:00,
2013-04-13 07:53:00,25.0,23.0,29.74,SE,127,14.0,-999.0,91,-99.99,,,-99.99,,2013-04-13 13:53:00,
2013-04-13 08:04:00,25.0,23.0,29.74,SE,127,14.0,-999.0,91,-99.99,,,-99.99,,2013-04-13 14:04:00,
2013-04-13 08:14:00,26.0,23.0,29.72,ESE,121,18.0,-999.0,89,-99.99,,,-99.99,,2013-04-13 14:14:00,
2013-04-13 08:23:00,26.0,23.0,29.73,SE,127,17.0,-999.0,88,-99.99,,,-99.99,,2013-04-13 14:23:00,
2013-04-13 08:37:00,27.0,23.0,29.72,SE,135,16.0,-999.0,87,-99.99,,,-99.99,,2013-04-13 14:37:00,
2013-04-13 08:45:00,26.0,23.0,29.71,SE,124,17.0,-999.0,87,-99.99,,,-99.99,,2013-04-13 14:45:00,
2013-04-13 08:55:00,27.0,24.0,29.71,SE,129,18.0,-999.0,87,-99.99,,,-99.99,,2013-04-13 14:55:00,
2013-04-13 09:05:00,27.0,24.0,29.69,SE,130,18.0,-999.0,87,-99.99,,,-99.99,,2013-04-13 15:05:00,
2013-04-13 09:14:00,28.0,25.0,29.68,SE,125,17.0,-999.0,87,-99.99,,,-99.99,,2013-04-13 15:14:00,
2013-04-13 09:29:00,28.0,25.0,29.70,SE,125,18.0,-999.0,87,-99.99,,,-99.99,,2013-04-13 15:29:00,
2013-04-13 09:35:00,28.0,25.0,29.69,ESE,123,17.0,-999.0,88,-99.99,,,-99.99,,2013-04-13 15:35:00,
2013-04-13 09:44:00,28.0,25.0,29.68,ESE,117,19.0,-999.0,88,-99.99,,,-99.99,,2013-04-13 15:44:00,
2013-04-13 09:55:00,29.0,26.0,29.66,ESE,119,19.0,-999.0,87,-99.99,,,-99.99,,2013-04-13 15:55:00,
2013-04-13 10:07:00,30.0,26.0,29.67,ESE,121,18.0,-999.0,85,-99.99,,,-99.99,,2013-04-13 16:07:00,
2013-04-13 10:15:00,30.0,26.0,29.67,SE,124,19.0,-999.0,85,-99.99,,,-99.99,,2013-04-13 16:15:00,
2013-04-13 10:24:00,31.0,27.0,29.66,ESE,121,15.0,-999.0,85,-99.99,,,-99.99,,2013-04-13 16:24:00,
2013-04-13 10:35:00,31.0,27.0,29.67,SE,125,20.0,-999.0,84,-99.99,,,-99.99,,2013-04-13 16:35:00,
2013-04-13 10:45:00,32.0,27.0,29.66,SE,128,21.0,-999.0,83,-99.99,,,-99.99,,2013-04-13 16:45:00,
2013-04-13 10:54:00,32.0,27.0,29.64,ESE,111,20.0,-999.0,81,-99.99,,,-99.99,,2013-04-13 16:54:00,
2013-04-13 11:07:00,32.0,27.0,29.64,ESE,111,20.0,-999.0,81,-99.99,,,-99.99,,2013-04-13 17:07:00,
2013-04-13 11:20:00,33.0,28.0,29.62,ESE,106,23.0,-999.0,82,-99.99,,,-99.99,,2013-04-13 17:20:00,
2013-04-13 11:37:00,34.0,28.0,29.61,ESE,115,20.0,-999.0,80,-99.99,,,-99.99,,2013-04-13 17:37:00,
2013-04-13 11:44:00,35.0,28.0,29.61,ESE,118,20.0,-999.0,77,-99.99,,,-99.99,,2013-04-13 17:44:00,
2013-04-13 11:58:00,35.0,28.0,29.62,SE,135,23.0,-999.0,74,-99.99,,,-99.99,,2013-04-13 17:58:00,
2013-04-13 12:05:00,36.0,27.0,29.58,SE,124,26.0,-999.0,72,-99.99,,,-99.99,,2013-04-13 18:05:00,
2013-04-13 12:15:00,36.0,28.0,29.59,SE,124,25.0,-999.0,74,-99.99,,,-99.99,,2013-04-13 18:15:00,
2013-04-13 12:24:00,36.0,28.0,29.56,SE,125,22.0,-999.0,74,-99.99,,,-99.99,,2013-04-13 18:24:00,
2013-04-13 12:33:00,36.0,29.0,29.59,ESE,122,19.0,-999.0,76,-99.99,,,-99.99,,2013-04-13 18:33:00,
2013-04-13 12:42:00,36.0,29.0,29.57,ESE,123,22.0,-999.0,76,-99.99,,,-99.99,,2013-04-13 18:42:00,
2013-04-13 12:52:00,36.0,30.0,29.58,ESE,112,20.0,-999.0,79,-99.99,,,-99.99,,2013-04-13 18:52:00,
2013-04-13 13:03:00,36.0,29.0,29.54,ESE,122,21.0,-999.0,78,-99.99,,,-99.99,,2013-04-13 19:03:00,
2013-04-13 13:12:00,36.0,30.0,29.54,ESE,123,21.0,-999.0,80,-99.99,,,-99.99,,2013-04-13 19:12:00,
2013-04-13 13:22:00,36.0,29.0,29.56,SE,132,25.0,-999.0,76,-99.99,,,-99.99,,2013-04-13 19:22:00,
2013-04-13 13:32:00,36.0,30.0,29.54,ESE,121,21.0,-999.0,77,-99.99,,,-99.99,,2013-04-13 19:32:00,
2013-04-13 13:42:00,36.0,29.0,29.54,ESE,123,27.0,-999.0,77,-99.99,,,-99.99,,2013-04-13 19:42:00,
2013-04-13 13:52:00,36.0,30.0,29.54,SE,127,31.0,-999.0,77,-99.99,,,-99.99,,2013-04-13 19:52:00,
2013-04-13 14:02:00,37.0,30.0,29.51,ESE,120,29.0,-999.0,76,-99.99,,,-99.99,,2013-04-13 20:02:00,
2013-04-13 14:12:00,37.0,30.0,29.54,ESE,117,28.0,-999.0,76,-99.99,,,-99.99,,2013-04-13 20:12:00,
2013-04-13 14:22:00,37.0,30.0,29.52,ESE,119,23.0,-999.0,76,-99.99,,,-99.99,,2013-04-13 20:22:00,
2013-04-13 14:32:00,37.0,31.0,29.52,SE,125,24.0,-999.0,76,-99.99,,,-99.99,,2013-04-13 20:32:00,
2013-04-13 14:42:00,37.0,31.0,29.53,ESE,119,19.0,-999.0,77,-99.99,,,-99.99,,2013-04-13 20:42:00,
2013-04-13 14:52:00,37.0,31.0,29.53,ESE,113,20.0,-999.0,76,-99.99,,,-99.99,,2013-04-13 20:52:00,
2013-04-13 15:02:00,38.0,31.0,29.50,SE,125,25.0,-999.0,77,-99.99,,,-99.99,,2013-04-13 21:02:00,
2013-04-13 15:12:00,38.0,31.0,29.50,ESE,112,19.0,-999.0,77,-99.99,,,-99.99,,2013-04-13 21:12:00,
2013-04-13 15:22:00,39.0,32.0,29.50,ESE,111,20.0,-999.0,77,-99.99,,,-99.99,,2013-04-13 21:22:00,
2013-04-13 15:33:00,38.0,31.0,29.48,ESE,118,19.0,-999.0,77,-99.99,,,-99.99,,2013-04-13 21:33:00,
2013-04-13 15:43:00,38.0,32.0,29.47,ESE,115,23.0,-999.0,79,-99.99,,,-99.99,,2013-04-13 21:43:00,
2013-04-13 15:52:00,37.0,31.0,29.47,ESE,120,27.0,-999.0,79,-99.99,,,-99.99,,2013-04-13 21:52:00,
2013-04-13 16:03:00,37.0,31.0,29.46,ESE,118,29.0,-999.0,80,-99.99,,,-99.99,,2013-04-13 22:03:00,
2013-04-13 16:12:00,37.0,31.0,29.47,SE,127,21.0,-999.0,81,-99.99,,,-99.99,,2013-04-13 22:12:00,
2013-04-13 16:22:00,37.0,32.0,29.46,ESE,120,26.0,-999.0,81,-99.99,,,-99.99,,2013-04-13 22:22:00,
2013-04-13 16:33:00,37.0,32.0,29.46,ESE,116,23.0,-999.0,82,-99.99,,,-99.99,,2013-04-13 22:33:00,
2013-04-13 16:42:00,37.0,32.0,29.44,ESE,119,23.0,-999.0,81,-99.99,,,-99.99,,2013-04-13 22:42:00,
2013-04-13 16:52:00,37.0,32.0,29.45,ESE,117,25.0,-999.0,82,-99.99,,,-99.99,,2013-04-13 22:52:00,
2013-04-13 17:02:00,37.0,32.0,29.45,ESE,115,19.0,-999.0,83,-99.99,,,-99.99,,2013-04-13 23:02:00,
2013-04-13 17:12:00,36.0,32.0,29.46,ESE,113,24.0,-999.0,84,-99.99,,,-99.99,,2013-04-13 23:12:00,
2013-04-13 17:22:00,36.0,32.0,29.45,ESE,123,27.0,-999.0,84,-99.99,,,-99.99,,2013-04-13 23:22:00,
2013-04-13 17:32:00,36.0,32.0,29.44,ESE,117,27.0,-999.0,85,-99.99,,,-99.99,,2013-04-13 23:32:00,
2013-04-13 17:42:00,36.0,32.0,29.45,ESE,109,29.0,-999.0,86,-99.99,,,-99.99,,2013-04-13 23:42:00,
2013-04-13 17:52:00,35.0,31.0,29.45,ESE,108,21.0,-999.0,87,-99.99,,,-99.99,,2013-04-13 23:52:00,
2013-04-13 18:02:00,35.0,32.0,29.44,ESE,111,24.0,-999.0,88,-99.99,,,-99.99,,2013-04-14 00:02:00,
2013-04-13 18:12:00,35.0,32.0,29.45,ESE,112,25.0,-999.0,89,-99.99,,,-99.99,,2013-04-14 00:12:00,
2013-04-13 18:22:00,34.0,32.0,29.45,ESE,109,24.0,-999.0,90,-99.99,,,-99.99,,2013-04-14 00:22:00,
2013-04-13 18:32:00,34.0,32.0,29.44,ESE,104,27.0,-999.0,91,-99.99,,,-99.99,,2013-04-14 00:32:00,
2013-04-13 18:42:00,34.0,32.0,29.44,ESE,104,27.0,-999.0,91,-99.99,,,-99.99,,2013-04-14 00:42:00,
2013-04-13 18:52:00,34.0,32.0,29.43,ESE,106,28.0,-999.0,91,-99.99,,,-99.99,,2013-04-14 00:52:00,
2013-04-13 19:02:00,34.0,32.0,29.43,ESE,105,27.0,-999.0,92,-99.99,,,-99.99,,2013-04-14 01:02:00,
2013-04-13 19:12:00,34.0,32.0,29.42,ESE,110,22.0,-999.0,92,-99.99,,,-99.99,,2013-04-14 01:12:00,
2013-04-13 19:22:00,34.0,32.0,29.43,East,101,20.0,-999.0,92,-99.99,,,-99.99,,2013-04-14 01:22:00,
2013-04-13 19:32:00,34.0,32.0,29.43,East,101,19.0,-999.0,92,-99.99,,,-99.99,,2013-04-14 01:32:00,
2013-04-13 19:42:00,34.0,32.0,29.42,ESE,103,21.0,-999.0,93,-99.99,,,-99.99,,2013-04-14 01:42:00,
2013-04-13 19:52:00,34.0,32.0,29.42,East,101,16.0,-999.0,93,-99.99,,,-99.99,,2013-04-14 01:52:00,
2013-04-13 20:02:00,34.0,33.0,29.42,East,97,18.0,-999.0,93,-99.99,,,-99.99,,2013-04-14 02:02:00,
2013-04-13 20:12:00,34.0,32.0,29.41,East,90,16.0,-999.0,92,-99.99,,,-99.99,,2013-04-14 02:12:00,
2013-04-13 20:22:00,33.0,31.0,29.41,ENE,63,13.0,-999.0,93,-99.99,,,-99.99,,2013-04-14 02:22:00,
2013-04-13 20:32:00,32.0,31.0,29.43,ENE,73,15.0,-999.0,96,-99.99,,,-99.99,,2013-04-14 02:32:00,
2013-04-13 20:42:00,33.0,32.0,29.43,East,83,19.0,-999.0,98,-99.99,,,-99.99,,2013-04-14 02:42:00,
2013-04-13 20:52:00,33.0,32.0,29.42,East,87,15.0,-999.0,97,-99.99,,,-99.99,,2013-04-14 02:52:00,
2013-04-13 21:02:00,33.0,32.0,29.41,East,94,16.0,-999.0,96,-99.99,,,-99.99,,2013-04-14 03:02:00,
2013-04-13 21:12:00,33.0,32.0,29.41,East,98,15.0,-999.0,96,-99.99,,,-99.99,,2013-04-14 03:12:00,
2013-04-13 21:22:00,34.0,33.0,29.39,East,97,13.0,-999.0,96,-99.99,,,-99.99,,2013-04-14 03:22:00,
2013-04-13 21:33:00,34.0,33.0,29.40,ESE,105,18.0,-999.0,95,-99.99,,,-99.99,,2013-04-14 03:33:00,
2013-04-13 21:42:00,34.0,33.0,29.41,ESE,107,19.0,-999.0,95,-99.99,,,-99.99,,2013-04-14 03:42:00,
2013-04-13 21:53:00,34.0,33.0,29.41,East,94,10.0,-999.0,95,-99.99,,,-99.99,,2013-04-14 03:53:00,
2013-04-13 22:02:00,35.0,33.0,29.41,East,87,15.0,-999.0,94,-99.99,,,-99.99,,2013-04-14 04:02:00,
2013-04-13 22:12:00,35.0,33.0,29.40,ESE,103,12.0,-999.0,94,-99.99,,,-99.99,,2013-04-14 04:12:00,
2013-04-13 22:23:00,35.0,33.0,29.40,East,85,11.0,-999.0,93,-99.99,,,-99.99,,2013-04-14 04:23:00,
2013-04-13 22:33:00,34.0,33.0,29.39,ESE,116,14.0,-999.0,93,-99.99,,,-99.99,,2013-04-14 04:33:00,
2013-04-13 22:43:00,35.0,33.0,29.39,ESE,107,13.0,-999.0,93,-99.99,,,-99.99,,2013-04-14 04:43:00,
2013-04-13 22:52:00,35.0,33.0,29.40,ESE,102,13.0,-999.0,93,-99.99,,,-99.99,,2013-04-14 04:52:00,
2013-04-13 23:03:00,35.0,33.0,29.38,East,92,10.0,-999.0,92,-99.99,,,-99.99,,2013-04-14 05:03:00,
2013-04-13 23:12:00,34.0,32.0,29.40,ENE,75,10.0,-999.0,94,-99.99,,,-99.99,,2013-04-14 05:12:00,
2013-04-13 23:22:00,33.0,32.0,29.39,East,86,11.0,-999.0,95,-99.99,,,-99.99,,2013-04-14 05:22:00,
2013-04-13 23:32:00,33.0,32.0,29.39,East,86,12.0,-999.0,96,-99.99,,,-99.99,,2013-04-14 05:32:00,
2013-04-13 23:42:00,34.0,33.0,29.40,ESE,104,10.0,-999.0,96,-99.99,,,-99.99,,2013-04-14 05:42:00,
2013-04-13 23:52:00,34.0,33.0,29.41,ENE,57,8.0,-999.0,95,-99.99,,,-99.99,,2013-04-14 05:52:00,